Location: Kensington
(33.9154°S, 18.5017°E)
Time: 14:32:15
(UTC+00:00)

Daily predictions for brighter satellites

Satellite Brightness Start Highest point End
(mag) Time Altitude Azimuth Time Altitude Azimuth Time Altitude Azimuth
Envisat 3.8 16:35:36 10° S 16:40:39 59° WSW 16:45:39 10° NNW
USA 306 3.3 16:41:42 10° SW 16:45:58 67° NW 16:50:11 10° NNE
Radarsat Rocket 4.4 16:39:19 10° SSE 16:46:02 49° E 16:51:58 10° N
NOAA 6 4.0 16:40:55 10° SSE 16:46:09 71° ENE 16:51:18 10° N
H-2A R/B 3.8 16:46:08 10° ESE 16:47:44 11° E 16:49:18 10° ENE
Cosmos 1892 Rocket 3.6 16:43:53 10° N 16:48:13 63° E 16:52:39 10° SSE
OAO 3 Rocket 3.5 16:45:01 10° WNW 16:49:34 55° NNE 16:53:57 11° E
Cosmos 1697 Rocket 2.7 16:43:57 10° NNW 16:49:35 75° ENE 16:55:18 10° SSE
Cosmos 1980 Rocket 2.7 16:47:06 10° N 16:52:11 37° ENE 16:57:19 10° SE
Cosmos 2227 Rocket 2.4 16:47:19 10° S 16:52:51 48° ESE 16:58:19 10° NE
Lacrosse 4 Rocket 3.0 16:54:49 10° NE 16:57:01 14° ENE 16:58:09 13° E
ISS -1.6 16:56:29 10° W 16:59:14 22° SW 17:02:01 10° SSE
Cosmos 2297 Rocket 2.2 16:53:54 10° SSW 16:59:37 74° ESE 17:05:15 10° NNE
Cosmos 1703 3.9 16:59:53 10° NNE 17:03:25 33° E 17:07:01 10° SSE
USA 307 4.0 17:00:03 10° SW 17:04:11 46° NW 17:08:15 10° NNE
Okean O Rocket 2.0 17:00:39 10° SSE 17:04:52 42° E 17:09:03 10° N
SMAP 3.1 17:03:02 10° SSE 17:07:46 88° WSW 17:12:27 10° NNW
Cosmos 2285 Rocket 4.2 17:01:32 10° NNW 17:07:56 78° WSW 17:14:22 10° SSE
Cosmos 2360 4.2 17:02:51 10° NNW 17:08:33 90° SW 17:14:18 10° SSE
Cosmos 2219 3.2 17:02:55 10° SSW 17:08:41 79° ESE 17:14:20 10° NNE
Spot 2 4.4 17:04:51 10° SSE 17:09:38 63° ENE 17:14:34 10° N
Cosmos 405 2.9 17:08:24 10° S 17:11:56 85° W 17:15:23 10° N
Okean 1-7 Rocket 3.6 17:08:28 10° N 17:12:59 70° E 17:17:31 10° SSE
CORIOLIS 4.1 17:11:37 10° SSE 17:17:06 86° E 17:22:32 10° NNW
Cosmos 1190 Rocket 4.1 17:14:10 10° S 17:19:25 54° ESE 17:24:36 10° NNE
Cosmos 2034 Rocket 4.4 17:17:03 10° SSW 17:23:14 68° W 17:29:20 10° N
X-37B 0.5 17:21:27 10° WSW 17:24:42 88° SSE 17:26:07 31° ENE
Cosmos 1420 Rocket 3.9 17:20:14 10° N 17:25:27 79° ENE 17:30:47 10° SSE
Cosmos 389 Rocket 3.8 17:24:27 10° SSE 17:26:17 23° SE 17:26:17 23° SE
CZ-2D R/B 3.3 17:24:58 10° SSE 17:28:49 54° E 17:32:38 10° N
H-2A R/B 2.3 17:25:19 10° SSE 17:29:29 88° ENE 17:33:27 10° NNW
CREW DRAGON DEMO-1 DEB 3.1 17:26:55 10° SSW 17:29:24 41° SSE 17:29:24 41° SSE
DMSP B5D2-2 4.2 17:24:50 10° N 17:30:08 82° WNW 17:35:31 10° SSW
Cosmos 1328 3.9 17:26:59 10° NNE 17:30:44 46° E 17:34:33 10° SSE
Cosmos 220 Rocket 4.4 17:28:35 10° N 17:32:32 38° ENE 17:33:34 33° ESE
Cosmos 1346 Rocket 3.4 17:29:18 10° NNW 17:33:15 60° W 17:37:18 10° S
CZ-2C R/B 3.3 17:33:14 10° N 17:34:19 12° NNE 17:34:19 12° NNE
CZ-4B R/B 3.2 17:30:53 10° S 17:36:24 81° WSW 17:41:45 10° NNW
Cosmos 676 Rocket 4.3 17:32:40 10° S 17:37:49 46° ESE 17:40:52 22° NE
Cosmos 2322 Rocket 4.3 17:36:50 10° NE 17:36:53 10° NE 17:36:53 10° NE
COSMOS 2455 3.2 17:35:19 10° SSW 17:41:19 68° WNW 17:47:17 10° NNE
Cosmos 1939 Rocket 3.8 17:40:29 10° S 17:44:24 49° WSW 17:48:19 10° NNW
APEX 4.4 17:38:55 10° S 17:44:40 43° ESE 17:45:45 38° E
OE (NEXTSAT) 4.1 17:42:13 10° SW 17:45:43 84° SE 17:45:58 75° ENE
Cosmos 1602 Rocket 3.5 17:42:00 10° N 17:46:26 65° E 17:50:56 10° SSE
Cosmos 1452 Rocket 3.4 17:42:26 10° N 17:47:39 66° ENE 17:51:58 15° SSE
Cosmos 1455 3.2 17:46:45 10° SSW 17:50:31 48° W 17:54:12 10° NNW
Cosmos 1634 Rocket 4.0 17:48:09 10° S 17:54:35 87° W 18:00:55 10° N
Meteor 2-1 Rocket 4.4 17:49:41 10° SSW 17:55:18 74° W 18:00:59 10° N
Timation 1 Rocket 4.5 17:50:17 10° SSW 17:56:21 77° WNW 18:02:20 10° NNE
CZ-4 R/B 4.3 17:54:24 29° SSE 17:56:29 79° ENE 18:00:37 10° N
CZ-4 R/B 3.8 18:00:12 13° N 18:00:12 13° N 18:00:40 10° N
CZ-2C R/B 3.6 17:54:45 10° S 17:59:54 57° WSW 18:04:44 10° NNW
Lacrosse 5 3.1 17:55:14 10° WNW 17:59:58 38° SW 18:03:20 18° SSE
IRS-1C Rocket 4.4 18:00:52 44° NE 18:00:52 44° NE 18:05:05 10° N
GEOS 3 Rocket 3.5 17:57:41 31° SE 18:00:17 85° NE 18:05:34 10° NNW
Cosmos 2142 Rocket 4.3 17:55:35 10° S 18:01:49 74° E 18:08:03 10° NNE
ERBS 4.1 18:00:26 10° SSW 18:01:58 24° SSW 18:01:58 24° SSW
Cosmos 1626 Rocket 4.4 17:59:38 10° NNW 18:04:01 53° W 18:08:27 10° S
GPS 2-04 Rocket1 3.1 18:04:52 10° W 18:08:29 60° SW 18:08:29 60° SW
USA 267 3.4 18:13:19 50° ENE 18:13:49 51° NE 18:20:10 10° NNW
Delta 2 Rocket 3.7 18:09:27 10° W 18:14:13 68° SSW 18:14:13 68° SSW
CZ-3B R/B 3.6 18:08:22 10° WNW 18:17:16 34° N 18:18:06 32° NNE
Aureole 3 4.1 18:15:07 10° S 18:26:03 - N 18:18:34 57° S
Cosmos 2180 Rocket 4.4 18:14:34 10° S 18:20:59 72° E 18:22:03 60° NE
Cosmos 1954 Rocket 4.3 18:15:49 10° SSW 18:21:06 65° WNW 18:23:32 31° N
H-2A R/B 2.3 18:22:13 10° S 18:27:38 70° WSW 18:32:48 10° NNW
Cosmos 2263 Rocket 3.4 18:22:29 10° S 18:25:22 28° S 18:25:22 28° S
OAO 3 Rocket 4.0 18:28:18 10° W 18:31:45 48° W 18:31:45 48° W
Lacrosse 4 Rocket 3.0 18:31:37 10° NW 18:34:32 31° W 18:34:32 31° W
Cosmos 1980 Rocket 4.2 18:31:38 10° WNW 18:36:13 26° WSW 18:40:52 10° S
SL-16 R/B 3.3 18:35:24 10° NNW 18:38:31 35° NNW 18:38:31 35° NNW
